This is the latest recevied weather packets stored in our database for station/object XE2B-20. If no packets are shown the sender has not sent any weather packets the latest 10 day(s).
| Time | Temp. | Humidity | Pressure | Rain* | Wind** | Luminosity | Snow |
|---|---|---|---|---|---|---|---|
| 1777621812 | 22.78° C | 18% | 802 hPa | - | - | - | - |
| 1777620315 | 22.78° C | 18% | 802.2 hPa | - | - | - | - |
| 1777618818 | 23.33° C | 18% | 802.4 hPa | - | - | - | - |
| 1777617321 | 23.89° C | 17% | 802.3 hPa | - | - | - | - |
| 1777615823 | 23.89° C | 16% | 802.4 hPa | - | - | - | - |
| 1777614325 | 24.44° C | 17% | 802.5 hPa | - | - | - | - |
| 1777612826 | 24.44° C | 16% | 802.3 hPa | - | - | - | - |
| 1777611334 | 24.44° C | 16% | 802.4 hPa | - | - | - | - |
| 1777609830 | 25° C | 16% | 802.4 hPa | - | - | - | - |
| 1777608330 | 25° C | 16% | 802.3 hPa | - | - | - | - |
| 1777605334 | 26.11° C | 15% | 801.5 hPa | - | - | - | - |
| 1777603836 | 27.22° C | 14% | 801.2 hPa | - | - | - | - |
| 1777602338 | 27.78° C | 14% | 800.7 hPa | - | - | - | - |
| 1777600841 | 28.89° C | 14% | 800.5 hPa | - | - | - | - |
| 1777599343 | 29.44° C | 13% | 800.1 hPa | - | - | - | - |
| 1777597846 | 30° C | 13% | 800 hPa | - | - | - | - |
| 1777596346 | 32.22° C | 13% | 799.9 hPa | - | - | - | - |
| 1777595377 | 33.89° C | 12% | 799.8 hPa | - | - | - | - |
| 1777593878 | 34.44° C | 12% | 799.7 hPa | - | - | - | - |
| 1777592379 | 35° C | 12% | 799.7 hPa | - | - | - | - |
| 1777590888 | 35.56° C | 12% | 799.7 hPa | - | - | - | - |
| 1777589386 | 36.11° C | 12% | 799.8 hPa | - | - | - | - |
| 1777587890 | 38.33° C | 11% | 800 hPa | - | - | - | - |
| 1777586390 | 37.22° C | 12% | 800.4 hPa | - | - | - | - |
| 1777584892 | 37.78° C | 11% | 800.6 hPa | - | - | - | - |
* Rain since midnight (hover to see other rain measurements)
** Current wind speed in m/s (hover to see current wind gust speed)